Location: Saratoga Springs
(43.0831°N, 73.7850°W)
Time: 15:41:25
(UTC-04:00)

Vanguard 1 Rocket - Pass Details

Date: 18 April 2024
Orbit: 651 x 4220 km, 34.3° (Epoch: 20 May)

Event Time Altitude Azimuth Distance (km) Brightness Sun altitude
Rises 03:50:40 0° 266° (W) 6,035 - -22.6°
Reaches altitude 10° 03:57:35 10° 243° (WSW) 5,775 - -21.7°
Maximum altitude 04:05:08 14° 219° (SW) 6,106 - -20.6°
Exits shadow 04:11:33 12° 201° (SSW) 6,721 11.3 -19.7°
Drops below altitude 10° 04:14:12 10° 195° (SSW) 7,024 11.4 -19.3°
Sets 04:25:21 0° 175° (S) 8,420 12.0 -17.6°
